Weather Roundup
Issued by NWS Chicago, IL

Home | Current Version | Previous Version | Text Only | Print | Product List | Glossary Off
Versions: 1 2 3 4 5 6 7 8 9 10 11 12 13 14 15 16 17 18 19 20 21 22 23 24 25 26 27 28 29 30 31 32 33 34 35 36 37 38 39 40 41 42 43 44 45 46 47 48 49 50

000
NZUS59 KLOT 221708
HRRLOT

CHICAGO AREA WEATHER ROUNDUP
NATIONAL WEATHER SERVICE CHICAGO/ROMEOVILLE IL
1200 PM CDT TUE AUG 22 2017

NOTE: "FAIR" INDICATES FEW OR NO CLOUDS BELOW 12,000 FEET WITH NO
SIGNIFICANT WEATHER AND/OR OBSTRUCTIONS TO VISIBILITY.

* THESE STATIONS ARE NOT UNDER NWS QUALITY CONTROL. THEY ALSO MAY NOT
  REPORT WEATHER SUCH AS PRECIPITATION OR FOG.

ILZ005-006-012>014-019>023-221800-
NORTHEAST ILLINOIS

CITY           SKY/WX    TMP DP  RH WIND       PRES   REMARKS
OHARE          PTSUNNY   75  61  61 W18       29.89R
MIDWAY         CLOUDY    74  64  71 W15G23    29.89R
AURORA         CLOUDY    72  65  78 NW15G22   29.93R
LANSING*       CLOUDY    74  63  68 W10G18    29.90R
JOLIET*        CLOUDY    74  66  76 W9G17     29.92S
WAUKEGAN       MOSUNNY   76  63  64 NW10G22   29.87R
DUPAGE AIRPORT CLOUDY    73  64  73 W16       29.91S
WHEELING       CLOUDY    76  63  64 W15G22    29.90R
MORRIS*        CLOUDY    72  65  79 NW15G22   29.92R
LEWIS AIRPORT* CLOUDY    73  63  71 W14       29.91S
NORTHERLY ISL    N/A     74  62  66 W16         N/A
$$

WIZ051-052-058>065-066-070>072-221800-
SOUTHEAST WISCONSIN

CITY           SKY/WX    TMP DP  RH WIND       PRES   REMARKS
MILWAUKEE      PTSUNNY   79  57  46 W16G25    29.86R HX  80
KENOSHA*       MOSUNNY   77  60  55 W16G24    29.88R
RACINE*        MOSUNNY   76  60  57 NW15G24   29.88R
WAUKESHA       PTSUNNY   73  55  53 W21       29.90R
WEST BEND      MOSUNNY   72  55  56 NW16      29.88R
$$

INZ001>003-010>013-019-020-221800-
NORTHWEST INDIANA

CITY           SKY/WX    TMP DP  RH WIND       PRES   REMARKS
GARY*          PTSUNNY   77  64  65 W18       29.89R
MICHIGAN CITY* NOT AVBL
RENSSELAER*    NOT AVBL
VALPARAISO     CLOUDY    75  67  76 W12       29.90R
$$

LMZ740>746-221800-
SOUTHERN LAKE MICHIGAN

STATION/POSITION TIME  SKY/WX   TEMP WIND        PRES    VSBY
                                AIR  DIR/SP/G
                 (UTC)          (F)  (DEG/KT/KT) (MB)    (MI)
HARRISON CRIB    1640            74  290/ 18/ 20   N/A
BURNHAM HARBOR   NOT AVBL
CALUMET HARBOR   1648            75  280/  7/ 14 1011.4R
BURNS HARBOR     1640            73  290/ 12/ 15 1012.2R
MICHIGAN CITY    1640            72  250/ 19/ 21   N/A
$$

ABBREVIATIONS USED IN REMARKS
   TC - TEMPERATURE IN CELSIUS
  WCI - WIND CHILL INDEX
   HX - HEAT INDEX
  VSB - VISIBILITY
$$



USA.gov is the U.S. government's official web portal to all federal, state and local government web resources and services.